Location: Sudbury
(46.5221°N, 80.9530°W)
Time: 05:50:52
(UTC-04:00)

ISS - Visible Passes

Search period start: 07 July 2020 00:00
Search period end: 17 July 2020 00:00
Orbit: 417 x 421 km, 51.6° (Epoch: 07 July)

Date Brightness Start Highest point End Pass type
(mag) Time Alt. Az. Time Alt. Az. Time Alt. Az.
07 Jul -3.8 02:49:29 54° W 02:50:09 80° NNW 02:53:31 10° ENE visible
07 Jul -2.1 04:24:09 10° WNW 04:27:15 34° N 04:30:22 10° ENE visible
08 Jul -3.2 02:03:17 49° E 02:03:17 49° E 02:05:54 10° ENE visible
08 Jul -2.3 03:36:22 10° W 03:39:31 37° N 03:42:42 10° ENE visible
09 Jul -1.7 01:17:01 19° E 01:17:01 19° E 01:18:12 10° ENE visible
09 Jul -2.7 02:49:56 21° W 02:51:48 45° NNW 02:55:03 10° ENE visible
09 Jul -2.0 04:25:58 10° WNW 04:29:04 33° N 04:32:10 10° ENE visible
10 Jul -3.2 02:03:34 50° WNW 02:04:05 58° NNW 02:07:25 10° ENE visible
10 Jul -2.0 03:38:13 10° WNW 03:41:18 32° N 03:44:23 10° ENE visible
11 Jul -3.2 01:17:04 54° NE 01:17:04 54° NE 01:19:47 10° ENE visible
11 Jul -2.1 02:50:25 10° WNW 02:53:31 34° N 02:56:38 10° ENE visible
11 Jul -2.4 04:27:34 10° WNW 04:30:48 42° NNE 04:34:01 10° E visible
12 Jul -2.3 00:30:20 28° ENE 00:30:20 28° ENE 00:32:07 10° ENE visible
12 Jul -2.3 02:03:12 14° WNW 02:05:44 37° N 02:08:55 10° ENE visible
12 Jul -2.1 03:39:53 10° WNW 03:43:02 36° N 03:46:11 10° ENE visible
12 Jul -2.1 23:42:57 22° E 23:42:57 22° E 23:44:22 10° ENE visible
13 Jul -2.7 01:15:44 18° W 01:17:58 45° NNW 01:21:14 10° ENE visible
13 Jul -1.9 02:52:09 10° WNW 02:55:14 33° N 02:58:20 10° ENE visible
13 Jul -3.5 04:29:01 10° WNW 04:32:23 72° NNE 04:35:44 10° ESE visible
13 Jul -2.9 22:50:38 10° SSW 22:53:34 29° SE 22:56:32 10° E visible
14 Jul -3.2 00:26:54 10° WSW 00:30:14 58° NNW 00:33:33 10° ENE visible
14 Jul -1.9 02:04:21 10° WNW 02:07:26 32° N 02:10:31 10° ENE visible
14 Jul -2.9 03:41:21 10° WNW 03:44:39 53° NNE 03:47:57 10° E visible
14 Jul -2.3 22:03:37 10° S 22:06:03 19° SE 22:08:29 10° E visible
14 Jul -3.7 23:39:08 10° WSW 23:42:30 81° NNW 23:45:53 10° ENE visible
15 Jul -2.0 01:16:30 10° WNW 01:19:36 34° N 01:22:43 10° ENE visible
15 Jul -2.5 02:53:39 10° WNW 02:56:53 42° NNE 03:00:06 10° E visible
15 Jul -3.7 04:30:28 10° WNW 04:33:45 52° SSW 04:37:02 10° SE visible
15 Jul -3.9 22:51:28 10° SW 22:54:49 69° SSE 22:58:10 10° ENE visible
16 Jul -2.2 00:28:36 10° W 00:31:47 38° N 00:34:57 10° ENE visible
16 Jul -2.1 02:05:55 10° WNW 02:09:04 36° N 02:12:13 10° ENE visible
16 Jul -3.9 03:42:44 10° WNW 03:46:06 80° SSW 03:49:27 10° ESE visible
16 Jul -3.5 22:03:56 10° SW 22:07:09 44° SE 22:10:23 10° ENE visible
16 Jul -2.6 23:40:43 10° W 23:43:58 45° NNW 23:47:13 10° ENE visible
